Weather History for Orange City, IA

Change the Weather History Date:

Friday, December 14, 2012

  Actual Average Record
Temperature  
Mean Temperature 34 °F -  
Max Temperature 48 °F 31 °F 57 °F (1998)
Min Temperature 21 °F 16 °F -6 °F (1949)
Degree Days  
Heating Degree Days 30    
Moisture  
Dew Point 25 °F    
Average Humidity 68    
Maximum Humidity 86    
Minimum Humidity 43    
Precipitation  
Precipitation 0.00 in - - ()
Sea Level Pressure  
Sea Level Pressure 29.86 in    
Wind  
Wind Speed 6 mph (SE)    
Max Wind Speed 10 mph    
Max Gust Speed 16 mph    
Visibility 9 miles    
Events Rain    
Averages and records for this station are not official NWS values.
T = Trace of Precipitation, MM = Missing Value Source: NWS Daily Summary

Daily Weather History Graph

Daily Weather History Graph

Search for Another Location

Airport:

Trip Planner

Search our weather history database for the weather conditions in past years. The results will help you decide how hot, cold, wet, or windy it might be!

Date:

Astronomy

Dec. 14, 2012 Rise Set
Actual Time 7:48 AM CST 4:50 PM CST
Civil Twilight 7:15 AM CST 5:22 PM CST
Nautical Twilight 6:40 AM CST 5:58 PM CST
Astronomical Twilight 6:05 AM CST 6:32 PM CST
Moon 8:52 AM CST (12/14) 6:45 PM CST (12/14)
Length of Visible Light 10h 06m
Length of Day
9h 01m
Waxing Crescent, 3% of the Moon is Illuminated
Dec 14
Waxing Crescent
Dec 19
First Quarter
Dec 28
Full
Jan 4
Last Quarter
Jan 11
New

Hourly Weather History & Observations

Time (CST) Temp. Windchill Dew Point Humidity Pressure Visibility Wind Dir Wind Speed Gust Speed Precip Events Conditions
12:15 AM 21.2 °F 14.9 °F 17.6 °F 86% 30.06 in 7.0 mi East 4.6 mph - N/A   Clear
12:35 AM 21.2 °F 14.9 °F 17.6 °F 86% 30.05 in 7.0 mi East 4.6 mph - N/A   Clear
12:55 AM 21.2 °F 14.9 °F 17.6 °F 86% 30.05 in 5.0 mi East 4.6 mph - N/A   Clear
1:15 AM 21.2 °F 14.9 °F 17.6 °F 86% 30.04 in 5.0 mi East 4.6 mph - N/A   Haze
1:35 AM 21.2 °F 13.6 °F 17.6 °F 86% 30.04 in 5.0 mi East 5.8 mph - N/A   Haze
1:55 AM 21.2 °F 13.6 °F 17.6 °F 86% 30.03 in 7.0 mi East 5.8 mph - N/A   Clear
2:15 AM 21.2 °F 13.6 °F 17.6 °F 86% 30.04 in 7.0 mi East 5.8 mph - N/A   Clear
2:35 AM 21.2 °F 13.6 °F 17.6 °F 86% 30.04 in 5.0 mi East 5.8 mph - N/A   Haze
2:55 AM 21.2 °F 12.6 °F 17.6 °F 86% 30.04 in 5.0 mi East 6.9 mph - N/A   Clear
3:15 AM 21.2 °F 13.6 °F 17.6 °F 86% 30.05 in 5.0 mi East 5.8 mph - N/A   Haze
3:35 AM 21.2 °F 12.6 °F 17.6 °F 86% 30.04 in 5.0 mi East 6.9 mph - N/A   Clear
3:55 AM 21.2 °F 12.6 °F 17.6 °F 86% 30.03 in 5.0 mi East 6.9 mph - N/A   Clear
4:15 AM 21.2 °F 11.7 °F 17.6 °F 86% 30.02 in 5.0 mi East 8.1 mph - N/A   Clear
4:35 AM 21.2 °F 12.6 °F 17.6 °F 86% 30.01 in 5.0 mi East 6.9 mph - N/A   Clear
5:15 AM 21.2 °F 12.6 °F 17.6 °F 86% 29.99 in 7.0 mi East 6.9 mph - N/A   Clear
5:35 AM 21.2 °F 12.6 °F 17.6 °F 86% 29.99 in 7.0 mi East 6.9 mph - N/A   Clear
5:55 AM 21.2 °F 13.6 °F 17.6 °F 86% 29.99 in 7.0 mi East 5.8 mph - N/A   Clear
6:15 AM 23.0 °F 17.0 °F 17.6 °F 80% 29.99 in 7.0 mi East 4.6 mph - N/A   Clear
6:35 AM 23.0 °F 15.8 °F 19.4 °F 86% 29.98 in 7.0 mi East 5.8 mph - N/A   Clear
6:55 AM 23.0 °F 18.4 °F 17.6 °F 80% 29.97 in 7.0 mi ENE 3.5 mph - N/A   Clear
7:15 AM 23.0 °F 15.8 °F 17.6 °F 80% 29.97 in 7.0 mi East 5.8 mph - N/A   Clear
7:35 AM 23.0 °F 13.9 °F 17.6 °F 80% 29.96 in 7.0 mi East 8.1 mph - N/A   Clear
7:55 AM 23.0 °F 13.9 °F 17.6 °F 80% 29.95 in 7.0 mi ESE 8.1 mph - N/A   Clear
8:15 AM 23.0 °F - 19.4 °F 86% 29.95 in 7.0 mi Calm Calm - N/A   Clear
8:35 AM 24.8 °F 16.1 °F 19.4 °F 80% 29.95 in 7.0 mi ESE 8.1 mph - N/A   Clear
8:55 AM 26.6 °F 19.1 °F 21.2 °F 80% 29.95 in 10.0 mi ESE 6.9 mph - N/A   Clear
9:15 AM 28.4 °F 22.2 °F 21.2 °F 74% 29.95 in 10.0 mi ESE 5.8 mph - N/A   Clear
9:35 AM 30.2 °F 26.7 °F 23.0 °F 75% 29.95 in 10.0 mi SSE 3.5 mph - N/A   Clear
9:55 AM 32.0 °F 25.6 °F 23.0 °F 69% 29.95 in 7.0 mi SE 6.9 mph - N/A   Clear
10:15 AM 33.8 °F 27.0 °F 24.8 °F 70% 29.93 in 10.0 mi SE 8.1 mph - N/A   Clear
10:35 AM 35.6 °F 30.7 °F 24.8 °F 65% 29.92 in 10.0 mi SE 5.8 mph - N/A   Clear
10:55 AM 37.4 °F 33.8 °F 24.8 °F 60% 29.91 in 10.0 mi SE 4.6 mph - N/A   Clear
11:15 AM 39.2 °F 34.2 °F 24.8 °F 56% 29.89 in 10.0 mi SE 6.9 mph - N/A   Clear
11:35 AM 41.0 °F 37.1 °F 24.8 °F 53% 29.88 in 10.0 mi SE 5.8 mph - N/A   Clear
11:55 AM 42.8 °F 38.0 °F 24.8 °F 49% 29.86 in 10.0 mi SSE 8.1 mph - N/A   Clear
12:15 PM 42.8 °F 37.5 °F 24.8 °F 49% 29.85 in 10.0 mi SE 9.2 mph - N/A   Clear
12:35 PM 42.8 °F 38.6 °F 24.8 °F 49% 29.84 in 10.0 mi SE 6.9 mph - N/A   Clear
12:55 PM 42.8 °F 38.0 °F 24.8 °F 49% 29.83 in 10.0 mi SSE 8.1 mph - N/A   Clear
1:15 PM 42.8 °F 38.0 °F 26.6 °F 53% 29.81 in 10.0 mi SSE 8.1 mph - N/A   Clear
1:35 PM 46.4 °F 41.5 °F 26.6 °F 46% - 10.0 mi SSE 10.4 mph - N/A   Clear
1:55 PM 46.4 °F 41.5 °F 26.6 °F 46% 29.78 in 10.0 mi SSE 10.4 mph 16.1 mph N/A   Clear
2:15 PM 48.2 °F - 26.6 °F 43% 29.77 in 10.0 mi SSE 10.4 mph 16.1 mph N/A   Clear
2:35 PM 48.2 °F - 26.6 °F 43% 29.77 in 10.0 mi SSE 10.4 mph 16.1 mph N/A   Clear
2:55 PM 48.2 °F - 26.6 °F 43% 29.75 in 10.0 mi SSE 10.4 mph - N/A   Clear
3:15 PM 48.2 °F - 28.4 °F 46% 29.75 in 10.0 mi SSE 10.4 mph - N/A   Clear
3:35 PM 48.2 °F - 28.4 °F 46% 29.75 in 10.0 mi SSE 9.2 mph 16.1 mph N/A   Clear
4:15 PM 48.2 °F - 28.4 °F 46% 29.75 in 10.0 mi SSE 9.2 mph - N/A   Clear
4:35 PM 46.4 °F 42.4 °F 28.4 °F 50% 29.75 in 10.0 mi SSE 8.1 mph - N/A   Clear
4:55 PM 46.4 °F 42.9 °F 28.4 °F 50% 29.75 in 10.0 mi SSE 6.9 mph - N/A   Clear
5:15 PM 44.6 °F 42.2 °F 28.4 °F 53% 29.74 in 10.0 mi SE 4.6 mph - N/A   Clear
5:35 PM 44.6 °F 41.4 °F 28.4 °F 53% 29.73 in 10.0 mi SE 5.8 mph - N/A   Clear
5:55 PM 44.6 °F 40.7 °F 30.2 °F 57% 29.73 in 10.0 mi SE 6.9 mph - N/A   Clear
6:15 PM 44.6 °F 41.4 °F 30.2 °F 57% 29.72 in 10.0 mi SE 5.8 mph - N/A   Clear
6:35 PM 44.6 °F 41.4 °F 30.2 °F 57% 29.72 in 10.0 mi SE 5.8 mph - N/A   Clear
6:55 PM 46.4 °F 41.5 °F 30.2 °F 53% 29.72 in 10.0 mi SSE 10.4 mph 16.1 mph N/A   Clear
7:15 PM 44.6 °F 39.7 °F 30.2 °F 57% 29.72 in 10.0 mi SE 9.2 mph - N/A   Clear
7:55 PM 44.6 °F 40.7 °F 30.2 °F 57% 29.72 in 10.0 mi SSE 6.9 mph - N/A   Mostly Cloudy
8:15 PM 44.6 °F 40.7 °F 32.0 °F 61% 29.71 in 10.0 mi SSE 6.9 mph - N/A   Overcast
8:35 PM 44.6 °F 40.2 °F 32.0 °F 61% 29.70 in 10.0 mi SE 8.1 mph - N/A   Mostly Cloudy
8:55 PM 46.4 °F 42.4 °F 33.8 °F 62% 29.70 in 10.0 mi SSE 8.1 mph - N/A   Mostly Cloudy
9:15 PM 46.4 °F 42.4 °F 33.8 °F 62% 29.69 in 10.0 mi SSE 8.1 mph - N/A   Scattered Clouds
9:35 PM 44.6 °F 40.7 °F 33.8 °F 66% 29.67 in 10.0 mi SE 6.9 mph - N/A   Clear
9:55 PM 44.6 °F 40.2 °F 33.8 °F 66% 29.67 in 10.0 mi SSE 8.1 mph - N/A   Clear
10:15 PM 44.6 °F 40.7 °F 33.8 °F 66% 29.66 in 10.0 mi SSE 6.9 mph - N/A   Clear
10:35 PM 44.6 °F 40.7 °F 33.8 °F 66% 29.66 in 10.0 mi SSE 6.9 mph - N/A   Scattered Clouds
10:55 PM 44.6 °F 40.7 °F 33.8 °F 66% 29.64 in 10.0 mi SE 6.9 mph - N/A   Scattered Clouds
11:15 PM 44.6 °F 41.4 °F 33.8 °F 66% 29.62 in 10.0 mi SE 5.8 mph - N/A Rain Light Rain
11:35 PM 42.8 °F 38.6 °F 35.6 °F 76% 29.61 in 10.0 mi ESE 6.9 mph - N/A Rain Rain
11:55 PM 42.8 °F 38.0 °F 35.6 °F 76% 29.57 in 10.0 mi East 8.1 mph - N/A   Light Drizzle